TimeCST,TemperatureF,Dew PointF,Humidity,Sea Level PressureIn,VisibilityMPH,Wind Direction,Wind SpeedMPH,Gust SpeedMPH,PrecipitationIn,Events,Conditions,WindDirDegrees,DateUTC
12:54 AM,9.0,7.0,92,30.02,7.0,NNW,9.2,-,N/A,,Clear,330,2012-12-23 06:54:00
1:54 AM,9.0,6.1,88,30.02,7.0,NW,6.9,-,N/A,,Clear,320,2012-12-23 07:54:00
2:54 AM,10.0,7.0,87,30.02,7.0,NW,8.1,-,N/A,,Clear,320,2012-12-23 08:54:00
3:54 AM,10.0,7.0,87,30.03,6.0,NW,10.4,-,N/A,,Clear,320,2012-12-23 09:54:00
4:54 AM,9.0,6.1,88,30.04,6.0,NNW,8.1,-,N/A,,Clear,330,2012-12-23 10:54:00
5:54 AM,10.0,7.0,87,30.06,6.0,NNW,9.2,-,N/A,,Clear,330,2012-12-23 11:54:00
6:54 AM,9.0,6.1,88,30.08,6.0,North,8.1,-,N/A,,Clear,350,2012-12-23 12:54:00
7:54 AM,10.0,7.0,87,30.08,5.0,North,6.9,-,N/A,,Clear,10,2012-12-23 13:54:00
8:54 AM,12.0,8.1,84,30.11,6.0,North,6.9,-,N/A,,Clear,360,2012-12-23 14:54:00
9:54 AM,15.1,10.0,80,30.12,6.0,NE,9.2,-,N/A,,Haze,40,2012-12-23 15:54:00
10:19 AM,15.8,10.4,79,30.07,5.0,NNE,11.5,-,N/A,,Haze,30,2012-12-23 16:19:00
10:54 AM,16.0,10.9,81,30.13,5.0,NE,11.5,-,N/A,,Haze,50,2012-12-23 16:54:00
11:12 AM,15.8,12.2,86,30.06,4.0,NE,11.5,-,N/A,,Overcast,50,2012-12-23 17:12:00
11:54 AM,17.1,12.9,84,30.10,4.0,NE,10.4,-,N/A,,Overcast,50,2012-12-23 17:54:00
12:54 PM,17.1,12.9,84,30.07,4.0,ENE,10.4,-,N/A,,Overcast,70,2012-12-23 18:54:00
1:54 PM,18.0,14.0,84,30.06,5.0,East,9.2,-,N/A,,Overcast,80,2012-12-23 19:54:00
2:54 PM,19.0,15.1,85,30.07,6.0,NE,5.8,-,N/A,,Overcast,50,2012-12-23 20:54:00
3:54 PM,19.0,15.1,85,30.09,6.0,NE,3.5,-,N/A,,Overcast,50,2012-12-23 21:54:00
4:54 PM,19.0,15.1,85,30.09,8.0,Calm,Calm,-,N/A,,Overcast,0,2012-12-23 22:54:00
5:54 PM,19.0,15.1,85,30.06,8.0,ENE,10.4,-,N/A,,Overcast,70,2012-12-23 23:54:00
6:54 PM,19.0,15.1,85,30.05,8.0,ENE,8.1,-,N/A,,Overcast,60,2012-12-24 00:54:00
7:54 PM,19.0,15.1,85,30.05,9.0,ENE,6.9,-,N/A,,Overcast,60,2012-12-24 01:54:00
8:10 PM,19.4,15.8,86,29.99,9.0,NE,5.8,-,N/A,,Overcast,50,2012-12-24 02:10:00
8:43 PM,17.6,15.8,93,29.99,9.0,East,8.1,-,N/A,,Scattered Clouds,80,2012-12-24 02:43:00
8:54 PM,18.0,15.1,88,30.04,9.0,East,5.8,-,N/A,,Partly Cloudy,80,2012-12-24 02:54:00
9:11 PM,17.6,14.0,86,29.99,9.0,East,4.6,-,N/A,,Mostly Cloudy,80,2012-12-24 03:11:00
9:22 PM,17.6,14.0,86,29.98,8.0,East,5.8,-,N/A,,Scattered Clouds,90,2012-12-24 03:22:00
9:54 PM,17.1,14.0,88,30.04,8.0,Calm,Calm,-,N/A,,Mostly Cloudy,0,2012-12-24 03:54:00
10:35 PM,17.6,14.0,86,29.98,8.0,East,4.6,-,N/A,,Overcast,80,2012-12-24 04:35:00
10:54 PM,18.0,15.1,88,30.04,8.0,Calm,Calm,-,N/A,,Overcast,0,2012-12-24 04:54:00
11:54 PM,18.0,15.1,88,30.02,8.0,East,5.8,-,N/A,,Overcast,80,2012-12-24 05:54:00